{"data":{"norad_id":65390,"epoch":"2026-09-20T14:22:22.556352Z","epoch_age_seconds":106375,"freshness":"FRESH","line1":"1 65390U 25191M   26263.59887218  .00019289  00000+0  59826-3 0  9999","line2":"2 65390  97.2821 129.6227 0002488 103.7616 256.3904 15.33444357 59652","mean_motion":15.33444357,"eccentricity":0.0002488,"inclination_deg":97.2821,"raan_deg":129.6227,"arg_perigee_deg":103.7616,"mean_anomaly_deg":256.3904,"bstar":0.00059826,"rev_number":5965,"period_min":93.906244033346,"perigee_km":463.84237949102,"apogee_km":467.2477956978,"semimajor_km":6843.6820875944,"source":"CELESTRAK","updated_at":"2026-09-21T09:00:35.599267Z"}}